Regional Weather Roundup
Issued by NWS Sioux Falls, SD

Home | Current Version | Previous Version | Text Only | Print | Product List | Glossary On
Versions: 1 2 3 4 5 6 7 8 9 10 11 12 13 14 15 16 17 18 19 20 21 22 23 24 25 26 27 28 29 30 31 32 33 34 35 36 37 38 39 40 41 42 43 44 45 46 47 48 49 50
000
ASUS43 KFSD 300110
RWRFSD

WEATHER ROUNDUP FOR SE SOUTH DAKOTA/SW MINNESOTA/NW IOWA
NATIONAL WEATHER SERVICE SIOUX FALLS SD
800 PM CDT WED JUL 29 2015

NOTE: "FAIR" INDICATES FEW OR NO CLOUDS BELOW 12,000 FEET WITH NO
SIGNIFICANT WEATHER AND OR OBSTRUCTIONS TO VISIBILITY.


SDZ038>040-050-052>070-300200-
SOUTHEAST SOUTH DAKOTA

CITY           SKY/WX    TMP DP  RH WIND       PRES   REMARKS
BROOKINGS      CLEAR     77  57  50 NW7       30.08S
CHAMBERLAIN    CLEAR     81  51  35 W8        30.09F
HURON          CLEAR     79  61  53 NW3       30.05R
MADISON        FAIR      75  57  53 NW5       30.09R
MITCHELL       CLEAR     81  52  36 W6        30.07S
SIOUX FALLS    PTCLDY    80  57  45 W6        30.08R
WINNER         FAIR      84  47  27 NW6       30.12S
YANKTON        CLEAR     81  55  41 W7        30.08S
$$

MNZ071-072-080-081-089-090-097-098-300200-
SOUTHWEST MINNESOTA

CITY           SKY/WX    TMP DP  RH WIND       PRES   REMARKS
FAIRMONT       CLEAR     79  52  38 W7        30.05R
JACKSON        CLEAR     75  59  57 W6        30.07S
LUVERNE        CLEAR     77  61  57 W5        30.08S
MARSHALL       CLEAR     75  55  50 W8        30.05S
MONTEVIDEO     CLEAR     75  54  46 NW7       30.02S
PIPESTONE      CLEAR     75  57  53 CALM      30.08S
REDWOOD FALLS  CLEAR     78  58  49 W9        30.01R
TRACY          CLEAR     77  55  47 W3        30.05S
WINDOM         CLEAR     75  59  57 W6        30.05S
WORTHINGTON    CLEAR     73  57  56 W7        30.08S
$$

IAZ001>003-012>014-020>022-031-032-NEZ013-014-SDZ071-300200-
NORTHWEST IOWA

CITY           SKY/WX    TMP DP  RH WIND       PRES   REMARKS
CHEROKEE       CLEAR     75  63  65 SW3       30.09F
DENISON        HAZE      75  64  69 SW5       30.10F VSB 3/4
ESTHERVILLE    CLEAR     75  60  59 W7        30.06S
LE MARS        CLEAR     77  63  61 SW6       30.10S
ORANGE CITY    CLEAR     73  61  64 SW6       30.09F
SHELDON        CLEAR     75  63  64 SW6       30.07S
SIOUX CITY     CLEAR     78  66  66 SW6       30.10S
SPENCER        CLEAR     76  60  57 W7        30.08S
STORM LAKE     CLEAR     73  61  64 W6        30.11S
$$

ABBREVIATIONS USED IN REMARKS
   TC - TEMPERATURE IN CELSIUS
  WCI - WIND CHILL INDEX
   HX - HEAT INDEX
  VSB - VISIBILITY




USA.gov is the U.S. government's official web portal to all federal, state and local government web resources and services.